| time (UTC) | temp C | wind direction | speed KPH | gust KPH | rain 1hr cm | rain 24hr cm | rain mn cm | humidity % | barometer mb |
| 20260901123518 | 19 | 278 | 9.7 | 20.9 | 0.00 | 0.20 | 0.00 | 63 | 1017.9 |
| 20260901123052 | 19 | 289 | 12.9 | 29.0 | 0.00 | 0.20 | 0.00 | 62 | 1017.9 |
| 20260901123016 | 19 | 289 | 12.9 | 29.0 | 0.00 | 0.20 | 0.00 | 62 | 1017.9 |
| 20260901122534 | 20 | 278 | 9.7 | 24.1 | 0.00 | 0.20 | 0.00 | 61 | 1017.9 |
| 20260901122032 | 20 | 282 | 11.3 | 20.9 | 0.00 | 0.20 | 0.00 | 61 | 1017.8 |
| 20260901121531 | 20 | 290 | 9.7 | 20.9 | 0.00 | 0.20 | 0.00 | 61 | 1017.7 |
| 20260901121029 | 20 | 291 | 11.3 | 24.1 | 0.00 | 0.20 | 0.00 | 61 | 1017.7 |
| 20260901120527 | 20 | 280 | 9.7 | 25.7 | 0.00 | 0.20 | 0.00 | 61 | 1017.7 |
| 20260901120025 | 20 | 277 | 11.3 | 25.7 | 0.00 | 0.20 | 0.00 | 61 | 1017.7 |
| 20260901115523 | 20 | 284 | 11.3 | 27.4 | 0.00 | 0.20 | 0.00 | 61 | 1017.8 |
| 20260901115022 | 20 | 274 | 11.3 | 22.5 | 0.00 | 0.20 | 0.00 | 61 | 1017.8 |
| 20260901114519 | 20 | 295 | 11.3 | 33.8 | 0.00 | 0.20 | 0.00 | 61 | 1017.8 |
| 20260901114049 | 20 | 277 | 9.7 | 35.4 | 0.00 | 0.20 | 0.00 | 61 | 1017.7 |
| 20260901114017 | 20 | 277 | 9.7 | 35.4 | 0.00 | 0.20 | 0.00 | 61 | 1017.7 |
| 20260901113515 | 20 | 276 | 8.0 | 20.9 | 0.00 | 0.20 | 0.00 | 61 | 1017.7 |
| 20260901113034 | 20 | 278 | 9.7 | 27.4 | 0.00 | 0.20 | 0.00 | 60 | 1017.6 |
| 20260901112532 | 20 | 279 | 17.7 | 35.4 | 0.00 | 0.20 | 0.00 | 59 | 1017.7 |
| 20260901112030 | 20 | 274 | 9.7 | 20.9 | 0.00 | 0.20 | 0.00 | 61 | 1017.7 |
| 20260901111528 | 20 | 285 | 9.7 | 22.5 | 0.00 | 0.20 | 0.00 | 61 | 1017.7 |
| 20260901111027 | 20 | 273 | 11.3 | 22.5 | 0.00 | 0.20 | 0.00 | 60 | 1017.7 |
| 20260901110525 | 20 | 287 | 12.9 | 24.1 | 0.00 | 0.20 | 0.00 | 59 | 1017.6 |
| 20260901110023 | 20 | 292 | 9.7 | 24.1 | 0.00 | 0.20 | 0.00 | 60 | 1017.6 |
| 20260901105521 | 20 | 281 | 11.3 | 22.5 | 0.00 | 0.20 | 0.00 | 60 | 1017.6 |
| 20260901105019 | 20 | 276 | 11.3 | 29.0 | 0.00 | 0.20 | 0.00 | 59 | 1017.5 |
| 20260901104517 | 20 | 265 | 11.3 | 22.5 | 0.00 | 0.20 | 0.00 | 60 | 1017.5 |
| 20260901104036 | 20 | 281 | 8.0 | 24.1 | 0.00 | 0.20 | 0.00 | 60 | 1017.5 |
| 20260901103534 | 20 | 277 | 11.3 | 22.5 | 0.00 | 0.20 | 0.00 | 60 | 1017.5 |
| 20260901103032 | 20 | 276 | 14.5 | 30.6 | 0.00 | 0.20 | 0.00 | 59 | 1017.5 |
| 20260901102530 | 21 | 281 | 14.5 | 33.8 | 0.00 | 0.20 | 0.00 | 58 | 1017.4 |
| 20260901102028 | 21 | 279 | 12.9 | 29.0 | 0.00 | 0.20 | 0.00 | 58 | 1017.3 |
| 20260901101526 | 21 | 280 | 14.5 | 30.6 | 0.00 | 0.20 | 0.00 | 58 | 1017.3 |
| 20260901101024 | 21 | 282 | 12.9 | 37.0 | 0.00 | 0.20 | 0.00 | 57 | 1017.2 |
| 20260901100522 | 21 | 273 | 16.1 | 30.6 | 0.00 | 0.20 | 0.00 | 58 | 1017.3 |
| 20260901100021 | 21 | 274 | 12.9 | 29.0 | 0.00 | 0.20 | 0.00 | 58 | 1017.3 |
| 20260901095518 | 21 | 307 | 14.5 | 29.0 | 0.00 | 0.20 | 0.00 | 58 | 1017.2 |
| 20260901095048 | 21 | 279 | 11.3 | 22.5 | 0.00 | 0.20 | 0.00 | 60 | 1017.2 |
| 20260901095017 | 21 | 279 | 11.3 | 22.5 | 0.00 | 0.20 | 0.00 | 60 | 1017.2 |
| 20260901094536 | 21 | 275 | 9.7 | 22.5 | 0.00 | 0.20 | 0.00 | 60 | 1017.1 |
| 20260901094033 | 21 | 267 | 11.3 | 24.1 | 0.00 | 0.20 | 0.00 | 60 | 1017.2 |
| 20260901093531 | 20 | 278 | 11.3 | 25.7 | 0.00 | 0.20 | 0.00 | 60 | 1017.1 |
| 20260901093030 | 20 | 282 | 12.9 | 27.4 | 0.00 | 0.20 | 0.00 | 59 | 1017.1 |
| 20260901092528 | 20 | 289 | 14.5 | 33.8 | 0.00 | 0.20 | 0.00 | 59 | 1017.1 |
| 20260901092026 | 20 | 273 | 14.5 | 37.0 | 0.00 | 0.20 | 0.00 | 59 | 1017.1 |
| 20260901091524 | 20 | 281 | 16.1 | 33.8 | 0.00 | 0.20 | 0.00 | 60 | 1017.0 |
| 20260901091022 | 20 | 287 | 16.1 | 33.8 | 0.00 | 0.20 | 0.00 | 62 | 1016.9 |
| 20260901090520 | 20 | 283 | 9.7 | 20.9 | 0.00 | 0.20 | 0.00 | 63 | 1016.8 |
| 20260901090049 | 20 | 283 | 11.3 | 24.1 | 0.00 | 0.20 | 0.00 | 64 | 1016.9 |
| 20260901090018 | 20 | 283 | 11.3 | 24.1 | 0.00 | 0.20 | 0.00 | 64 | 1016.9 |
| 20260901085535 | 20 | 269 | 12.9 | 33.8 | 0.00 | 0.20 | 0.00 | 65 | 1016.8 |
| 20260901085033 | 20 | 280 | 9.7 | 29.0 | 0.00 | 0.20 | 0.00 | 64 | 1016.8 |
| 20260901084531 | 20 | 276 | 12.9 | 25.7 | 0.00 | 0.20 | 0.00 | 65 | 1016.9 |
| 20260901084030 | 20 | 280 | 12.9 | 25.7 | 0.00 | 0.20 | 0.00 | 66 | 1016.8 |
| 20260901083528 | 20 | 289 | 12.9 | 25.7 | 0.00 | 0.20 | 0.00 | 66 | 1016.8 |
| 20260901083026 | 20 | 276 | 16.1 | 27.4 | 0.00 | 0.20 | 0.00 | 66 | 1016.8 |
| 20260901082524 | 20 | 290 | 11.3 | 24.1 | 0.00 | 0.20 | 0.00 | 68 | 1016.7 |
| 20260901082022 | 19 | 272 | 8.0 | 16.1 | 0.00 | 0.20 | 0.00 | 68 | 1016.7 |
| 20260901081520 | 19 | 293 | 11.3 | 25.7 | 0.00 | 0.20 | 0.00 | 66 | 1016.7 |
| 20260901081019 | 19 | 289 | 9.7 | 25.7 | 0.00 | 0.20 | 0.00 | 68 | 1016.6 |
| 20260901080516 | 19 | 291 | 8.0 | 17.7 | 0.00 | 0.20 | 0.00 | 68 | 1016.5 |
| 20260901080035 | 19 | 290 | 9.7 | 17.7 | 0.00 | 0.20 | 0.00 | 68 | 1016.6 |
| 20260901075533 | 19 | 284 | 8.0 | 17.7 | 0.00 | 0.20 | 0.00 | 68 | 1016.7 |
| 20260901075031 | 19 | 294 | 8.0 | 17.7 | 0.00 | 0.20 | 0.00 | 68 | 1016.7 |
| 20260901074529 | 19 | 287 | 9.7 | 20.9 | 0.00 | 0.20 | 0.00 | 68 | 1016.6 |
| 20260901074027 | 19 | 290 | 9.7 | 17.7 | 0.00 | 0.20 | 0.00 | 69 | 1016.6 |
| 20260901073525 | 18 | 291 | 8.0 | 20.9 | 0.00 | 0.20 | 0.00 | 69 | 1016.6 |
| 20260901073023 | 18 | 306 | 9.7 | 20.9 | 0.00 | 0.20 | 0.00 | 69 | 1016.5 |
| 20260901072522 | 18 | 281 | 8.0 | 16.1 | 0.00 | 0.20 | 0.00 | 69 | 1016.5 |
| 20260901072020 | 18 | 292 | 12.9 | 25.7 | 0.00 | 0.20 | 0.00 | 69 | 1016.4 |
| 20260901071518 | 18 | 282 | 8.0 | 16.1 | 0.00 | 0.20 | 0.00 | 71 | 1016.4 |
| 20260901071016 | 18 | 279 | 9.7 | 24.1 | 0.00 | 0.20 | 0.00 | 70 | 1016.3 |
| 20260901070534 | 18 | 291 | 12.9 | 27.4 | 0.00 | 0.20 | 0.00 | 70 | 1016.3 |
| 20260901070032 | 18 | 276 | 12.9 | 25.7 | 0.00 | 0.20 | 0.00 | 71 | 1016.4 |
| 20260901065544 | 18 | 287 | 12.9 | 29.0 | 0.00 | 0.20 | 0.00 | 71 | 1016.4 |
| 20260901065029 | 18 | 288 | 11.3 | 25.7 | 0.00 | 0.20 | 0.00 | 73 | 1016.2 |
| 20260901064527 | 18 | 283 | 11.3 | 20.9 | 0.00 | 0.20 | 0.00 | 73 | 1016.2 |
| 20260901064025 | 17 | 279 | 8.0 | 17.7 | 0.00 | 0.20 | 0.00 | 73 | 1016.2 |
| 20260901063523 | 17 | 287 | 11.3 | 24.1 | 0.00 | 0.20 | 0.00 | 73 | 1016.2 |
| 20260901063021 | 17 | 298 | 8.0 | 14.5 | 0.00 | 0.20 | 0.00 | 74 | 1016.2 |
| 20260901062519 | 17 | 282 | 8.0 | 20.9 | 0.00 | 0.20 | 0.00 | 75 | 1016.2 |
| 20260901062017 | 17 | 285 | 9.7 | 24.1 | 0.00 | 0.20 | 0.00 | 75 | 1016.2 |
| 20260901061516 | 17 | 289 | 8.0 | 17.7 | 0.00 | 0.20 | 0.00 | 76 | 1016.1 |
| 20260901061034 | 17 | 290 | 8.0 | 17.7 | 0.00 | 0.20 | 0.00 | 76 | 1016.0 |
| 20260901060532 | 17 | 284 | 8.0 | 20.9 | 0.00 | 0.20 | 0.00 | 77 | 1016.0 |
| 20260901060030 | 17 | 283 | 8.0 | 16.1 | 0.00 | 0.20 | 0.00 | 77 | 1016.0 |
| 20260901055528 | 17 | 279 | 8.0 | 17.7 | 0.00 | 0.20 | 0.00 | 77 | 1016.0 |
| 20260901055026 | 17 | 280 | 8.0 | 16.1 | 0.00 | 0.20 | 0.00 | 77 | 1015.9 |
| 20260901054524 | 17 | 287 | 8.0 | 20.9 | 0.00 | 0.20 | 0.00 | 77 | 1015.8 |
| 20260901054023 | 17 | 285 | 9.7 | 17.7 | 0.00 | 0.20 | 0.00 | 78 | 1015.9 |
| 20260901053521 | 17 | 281 | 11.3 | 35.4 | 0.00 | 0.20 | 0.00 | 79 | 1015.9 |
| 20260901053052 | 16 | 282 | 8.0 | 16.1 | 0.00 | 0.20 | 0.00 | 80 | 1015.8 |
| 20260901053019 | 16 | 282 | 8.0 | 16.1 | 0.00 | 0.20 | 0.00 | 80 | 1015.8 |
| 20260901052517 | 16 | 279 | 8.0 | 17.7 | 0.00 | 0.20 | 0.00 | 80 | 1015.8 |
| 20260901052035 | 16 | 280 | 8.0 | 17.7 | 0.00 | 0.20 | 0.00 | 80 | 1015.8 |
| 20260901051533 | 16 | 294 | 8.0 | 16.1 | 0.00 | 0.20 | 0.00 | 80 | 1015.7 |
| 20260901051032 | 16 | 274 | 6.4 | 12.9 | 0.00 | 0.20 | 0.00 | 80 | 1015.7 |
| 20260901050530 | 16 | 292 | 4.8 | 11.3 | 0.00 | 0.20 | 0.00 | 80 | 1015.6 |
| 20260901050028 | 16 | 295 | 6.4 | 12.9 | 0.00 | 0.20 | 0.00 | 80 | 1015.6 |
| 20260901045525 | 16 | 290 | 6.4 | 12.9 | 0.00 | 0.20 | 0.00 | 80 | 1015.5 |
| 20260901045024 | 16 | 288 | 6.4 | 12.9 | 0.00 | 0.20 | 0.00 | 80 | 1015.5 |
| 20260901044522 | 16 | 286 | 6.4 | 11.3 | 0.00 | 0.20 | 0.00 | 80 | 1015.4 |
| 20260901044020 | 16 | 279 | 6.4 | 12.9 | 0.00 | 0.20 | 0.00 | 80 | 1015.4 |
| 20260901043518 | 16 | 271 | 6.4 | 11.3 | 0.00 | 0.20 | 0.00 | 80 | 1015.3 |
| 20260901043047 | 16 | 284 | 8.0 | 17.7 | 0.00 | 0.20 | 0.00 | 80 | 1015.3 |
| 20260901043016 | 16 | 284 | 8.0 | 17.7 | 0.00 | 0.20 | 0.00 | 80 | 1015.3 |
| 20260901042534 | 16 | 285 | 9.7 | 17.7 | 0.00 | 0.20 | 0.00 | 80 | 1015.2 |
| 20260901042033 | 16 | 282 | 6.4 | 12.9 | 0.00 | 0.20 | 0.00 | 80 | 1015.0 |
| 20260901041531 | 16 | 289 | 6.4 | 16.1 | 0.00 | 0.20 | 0.00 | 80 | 1015.0 |
| 20260901041029 | 16 | 288 | 6.4 | 12.9 | 0.00 | 0.20 | 0.00 | 80 | 1014.9 |
| 20260901040527 | 16 | 287 | 8.0 | 16.1 | 0.00 | 0.20 | 0.00 | 80 | 1014.8 |
| 20260901040025 | 16 | 293 | 8.0 | 14.5 | 0.00 | 0.20 | 0.00 | 80 | 1014.8 |
| 20260901035523 | 16 | 276 | 8.0 | 17.7 | 0.00 | 0.20 | 0.00 | 80 | 1014.8 |
| 20260901035021 | 16 | 290 | 8.0 | 17.7 | 0.00 | 0.20 | 0.00 | 81 | 1014.9 |
| 20260901034519 | 16 | 280 | 8.0 | 16.1 | 0.00 | 0.20 | 0.00 | 81 | 1014.9 |
| 20260901034048 | 16 | 283 | 6.4 | 12.9 | 0.00 | 0.20 | 0.00 | 81 | 1014.8 |
| 20260901034017 | 16 | 283 | 6.4 | 12.9 | 0.00 | 0.20 | 0.00 | 81 | 1014.8 |
| 20260901033535 | 16 | 282 | 6.4 | 14.5 | 0.00 | 0.20 | 0.00 | 81 | 1014.8 |
| 20260901033033 | 16 | 286 | 4.8 | 9.7 | 0.00 | 0.20 | 0.00 | 81 | 1014.9 |
| 20260901032531 | 16 | 284 | 6.4 | 14.5 | 0.00 | 0.20 | 0.00 | 82 | 1014.9 |
| 20260901032030 | 16 | 292 | 8.0 | 14.5 | 0.00 | 0.20 | 0.00 | 82 | 1014.9 |
| 20260901031527 | 16 | 285 | 8.0 | 20.9 | 0.00 | 0.20 | 0.00 | 83 | 1014.9 |
| 20260901031026 | 16 | 286 | 6.4 | 17.7 | 0.00 | 0.20 | 0.00 | 83 | 1014.9 |
| 20260901030524 | 16 | 277 | 3.2 | 9.7 | 0.00 | 0.20 | 0.00 | 84 | 1014.9 |
| 20260901030022 | 16 | 282 | 4.8 | 12.9 | 0.00 | 0.20 | 0.00 | 84 | 1015.0 |
| 20260901025520 | 16 | 282 | 3.2 | 6.4 | 0.00 | 0.20 | 0.00 | 84 | 1014.8 |
| 20260901025050 | 16 | 268 | 3.2 | 6.4 | 0.00 | 0.20 | 0.00 | 84 | 1014.9 |
| 20260901025018 | 16 | 268 | 3.2 | 6.4 | 0.00 | 0.20 | 0.00 | 84 | 1014.9 |
| 20260901024516 | 16 | 273 | 3.2 | 6.4 | 0.00 | 0.20 | 0.00 | 84 | 1014.9 |
| 20260901024035 | 16 | 263 | 1.6 | 6.4 | 0.00 | 0.20 | 0.00 | 84 | 1014.9 |
| 20260901023533 | 16 | 241 | 1.6 | 4.8 | 0.00 | 0.20 | 0.00 | 84 | 1015.0 |
| 20260901023031 | 16 | 251 | 1.6 | 11.3 | 0.00 | 0.20 | 0.00 | 84 | 1014.9 |
| 20260901022529 | 16 | 255 | 1.6 | 9.7 | 0.00 | 0.20 | 0.00 | 84 | 1014.9 |
| 20260901022027 | 16 | 261 | 0.0 | 4.8 | 0.00 | 0.20 | 0.00 | 84 | 1014.7 |
| 20260901021525 | 16 | 260 | 1.6 | 4.8 | 0.00 | 0.20 | 0.00 | 84 | 1014.7 |
| 20260901021023 | 16 | 0.0 | 0.0 | 0.00 | 0.20 | 0.00 | 84 | 1014.7 | |
| 20260901020521 | 16 | 264 | 0.0 | 3.2 | 0.00 | 0.20 | 0.00 | 84 | 1014.7 |
| 20260901020019 | 16 | 261 | 0.0 | 4.8 | 0.00 | 0.20 | 0.00 | 84 | 1014.7 |
| 20260901015517 | 16 | 0.0 | 0.0 | 0.00 | 0.20 | 0.00 | 84 | 1014.7 | |
| 20260901015047 | 16 | 0.0 | 0.0 | 0.00 | 0.20 | 0.00 | 84 | 1014.7 | |
| 20260901015015 | 16 | 0.0 | 0.0 | 0.00 | 0.20 | 0.00 | 84 | 1014.7 | |
| 20260901014534 | 16 | 238 | 0.0 | 1.6 | 0.00 | 0.20 | 0.00 | 84 | 1014.8 |
| 20260901014032 | 16 | 253 | 0.0 | 3.2 | 0.00 | 0.20 | 0.00 | 84 | 1015.0 |
| 20260901013530 | 16 | 260 | 0.0 | 3.2 | 0.00 | 0.20 | 0.00 | 84 | 1014.9 |
| 20260901013029 | 16 | 223 | 0.0 | 6.4 | 0.00 | 0.20 | 0.00 | 84 | 1014.8 |
| 20260901012527 | 16 | 231 | 1.6 | 6.4 | 0.00 | 0.20 | 0.00 | 84 | 1014.8 |
| 20260901012025 | 16 | 246 | 0.0 | 3.2 | 0.00 | 0.20 | 0.00 | 84 | 1014.8 |
| 20260901011523 | 16 | 229 | 0.0 | 1.6 | 0.00 | 0.20 | 0.00 | 84 | 1014.8 |
| 20260901011021 | 16 | 231 | 1.6 | 4.8 | 0.00 | 0.20 | 0.00 | 84 | 1014.8 |
| 20260901010519 | 16 | 230 | 0.0 | 1.6 | 0.00 | 0.20 | 0.00 | 84 | 1014.7 |
| 20260901010049 | 16 | 276 | 1.6 | 6.4 | 0.00 | 0.20 | 0.00 | 83 | 1014.8 |
| 20260901010017 | 16 | 276 | 1.6 | 6.4 | 0.00 | 0.20 | 0.00 | 83 | 1014.8 |
| 20260901005535 | 16 | 285 | 1.6 | 6.4 | 0.00 | 0.20 | 0.00 | 83 | 1014.9 |
| 20260901005033 | 16 | 282 | 1.6 | 6.4 | 0.00 | 0.20 | 0.00 | 83 | 1014.9 |
| 20260901004531 | 16 | 259 | 1.6 | 3.2 | 0.00 | 0.20 | 0.00 | 83 | 1014.9 |
| 20260901004030 | 16 | 290 | 0.0 | 1.6 | 0.00 | 0.20 | 0.00 | 83 | 1014.9 |
| 20260901003528 | 16 | 0.0 | 0.0 | 0.00 | 0.20 | 0.00 | 83 | 1015.0 | |
| 20260901003059 | 16 | 0.0 | 0.0 | 0.00 | 0.20 | 0.00 | 83 | 1014.8 | |
| 20260901003026 | 16 | 0.0 | 0.0 | 0.00 | 0.20 | 0.00 | 83 | 1014.8 | |
| 20260901002524 | 16 | 0.0 | 0.0 | 0.00 | 0.20 | 0.00 | 83 | 1014.8 | |
| 20260901002022 | 16 | 0.0 | 0.0 | 0.00 | 0.20 | 0.00 | 83 | 1014.8 | |
| 20260901001520 | 16 | 0.0 | 0.0 | 0.00 | 0.20 | 0.00 | 82 | 1015.0 | |
| 20260901001050 | 16 | 0.0 | 0.0 | 0.00 | 0.20 | 0.00 | 82 | 1014.9 | |
| 20260901001018 | 16 | 0.0 | 0.0 | 0.00 | 0.20 | 0.00 | 82 | 1014.9 | |
| 20260901000516 | 16 | 0.0 | 0.0 | 0.00 | 0.20 | 0.00 | 82 | 1014.9 | |
| 20260901000035 | 16 | 0.0 | 0.0 | 0.00 | 0.20 | 0.00 | 82 | 1015.0 | |
| 20260831235533 | 16 | 198 | 0.0 | 1.6 | 0.00 | 0.20 | 0.00 | 82 | 1015.0 |
| 20260831235031 | 16 | 0.0 | 0.0 | 0.00 | 0.20 | 0.00 | 82 | 1015.1 | |
| 20260831234529 | 16 | 223 | 0.0 | 1.6 | 0.00 | 0.20 | 0.00 | 82 | 1015.2 |
| 20260831234027 | 16 | 0.0 | 0.0 | 0.00 | 0.20 | 0.00 | 82 | 1015.3 | |
| 20260831233525 | 16 | 0.0 | 0.0 | 0.00 | 0.20 | 0.00 | 81 | 1015.4 | |
| 20260831233023 | 16 | 0.0 | 0.0 | 0.00 | 0.20 | 0.00 | 81 | 1015.4 | |
| 20260831232521 | 16 | 0.0 | 0.0 | 0.00 | 0.20 | 0.00 | 81 | 1015.5 | |
| 20260831232019 | 16 | 0.0 | 0.0 | 0.00 | 0.20 | 0.00 | 81 | 1015.4 | |
| 20260831231518 | 16 | 0.0 | 0.0 | 0.00 | 0.20 | 0.00 | 81 | 1015.4 | |
| 20260831231049 | 16 | 0.0 | 0.0 | 0.00 | 0.20 | 0.00 | 81 | 1015.4 | |
| 20260831231016 | 16 | 0.0 | 0.0 | 0.00 | 0.20 | 0.00 | 81 | 1015.4 | |
| 20260831230534 | 16 | 0.0 | 0.0 | 0.00 | 0.20 | 0.00 | 81 | 1015.3 | |
| 20260831230032 | 16 | 150 | 0.0 | 1.6 | 0.00 | 0.20 | 0.00 | 81 | 1015.3 |
| 20260831225530 | 16 | 150 | 0.0 | 1.6 | 0.00 | 0.20 | 0.00 | 81 | 1015.3 |
| 20260831225028 | 17 | 152 | 0.0 | 3.2 | 0.00 | 0.20 | 0.00 | 81 | 1015.3 |
| 20260831224527 | 17 | 0.0 | 0.0 | 0.00 | 0.20 | 0.00 | 81 | 1015.4 | |
| 20260831224025 | 17 | 0.0 | 0.0 | 0.00 | 0.20 | 0.00 | 81 | 1015.4 | |
| 20260831223523 | 17 | 0.0 | 0.0 | 0.00 | 0.20 | 0.00 | 81 | 1015.4 | |
| 20260831223021 | 17 | 0.0 | 0.0 | 0.00 | 0.20 | 0.00 | 81 | 1015.6 | |
| 20260831222519 | 17 | 0.0 | 0.0 | 0.00 | 0.20 | 0.00 | 81 | 1015.7 | |
| 20260831222049 | 17 | 0.0 | 0.0 | 0.00 | 0.20 | 0.00 | 81 | 1015.6 | |
| 20260831222017 | 17 | 0.0 | 0.0 | 0.00 | 0.20 | 0.00 | 81 | 1015.6 | |
| 20260831221535 | 17 | 0.0 | 0.0 | 0.00 | 0.20 | 0.00 | 81 | 1015.5 | |
| 20260831221033 | 17 | 0.0 | 0.0 | 0.00 | 0.20 | 0.00 | 81 | 1015.4 | |
| 20260831220532 | 17 | 0.0 | 0.0 | 0.00 | 0.20 | 0.00 | 81 | 1015.5 | |
| 20260831220030 | 17 | 0.0 | 0.0 | 0.00 | 0.20 | 0.20 | 80 | 1015.4 | |
| 20260831215528 | 17 | 0.0 | 0.0 | 0.00 | 0.20 | 0.20 | 80 | 1015.3 | |
| 20260831215026 | 17 | 0.0 | 0.0 | 0.00 | 0.20 | 0.20 | 80 | 1015.2 | |
| 20260831214524 | 17 | 0.0 | 0.0 | 0.00 | 0.20 | 0.20 | 80 | 1015.4 | |
| 20260831214022 | 17 | 0.0 | 0.0 | 0.00 | 0.20 | 0.20 | 80 | 1015.4 | |
| 20260831213522 | 17 | 0.0 | 0.0 | 0.00 | 0.20 | 0.20 | 80 | 1015.4 | |
| 20260831213018 | 17 | 0.0 | 0.0 | 0.00 | 0.20 | 0.20 | 80 | 1015.4 | |
| 20260831212517 | 17 | 0.0 | 0.0 | 0.00 | 0.20 | 0.20 | 80 | 1015.6 | |
| 20260831212035 | 18 | 0.0 | 0.0 | 0.00 | 0.20 | 0.20 | 80 | 1015.5 | |
| 20260831211533 | 18 | 0.0 | 0.0 | 0.00 | 0.20 | 0.20 | 80 | 1015.4 | |
| 20260831211031 | 18 | 0.0 | 0.0 | 0.00 | 0.20 | 0.20 | 80 | 1015.4 | |
| 20260831210529 | 18 | 0.0 | 0.0 | 0.00 | 0.20 | 0.20 | 80 | 1015.3 | |
| 20260831210027 | 18 | 0.0 | 0.0 | 0.00 | 0.20 | 0.20 | 80 | 1015.4 | |
| 20260831205526 | 18 | 0.0 | 0.0 | 0.00 | 0.20 | 0.20 | 80 | 1015.4 | |
| 20260831205024 | 18 | 0.0 | 0.0 | 0.00 | 0.20 | 0.20 | 80 | 1015.4 | |
| 20260831204522 | 18 | 0.0 | 0.0 | 0.00 | 0.20 | 0.20 | 80 | 1015.4 | |
| 20260831204020 | 18 | 0.0 | 0.0 | 0.00 | 0.20 | 0.20 | 80 | 1015.4 | |
| 20260831203518 | 18 | 0.0 | 0.0 | 0.00 | 0.20 | 0.20 | 80 | 1015.3 | |
| 20260831203047 | 18 | 0.0 | 0.0 | 0.00 | 0.20 | 0.20 | 80 | 1015.3 | |
| 20260831203016 | 18 | 0.0 | 0.0 | 0.00 | 0.20 | 0.20 | 80 | 1015.3 | |
| 20260831202534 | 18 | 0.0 | 0.0 | 0.00 | 0.20 | 0.20 | 80 | 1015.4 | |
| 20260831202032 | 18 | 0.0 | 0.0 | 0.00 | 0.20 | 0.20 | 80 | 1015.4 | |
| 20260831201530 | 18 | 104 | 0.0 | 3.2 | 0.00 | 0.20 | 0.20 | 80 | 1015.3 |
| 20260831201029 | 18 | 111 | 0.0 | 3.2 | 0.00 | 0.20 | 0.20 | 79 | 1015.4 |
| 20260831200527 | 18 | 0.0 | 0.0 | 0.00 | 0.20 | 0.20 | 79 | 1015.5 | |
| 20260831200025 | 18 | 0.0 | 0.0 | 0.00 | 0.20 | 0.20 | 80 | 1015.4 | |
| 20260831195523 | 19 | 0.0 | 0.0 | 0.00 | 0.20 | 0.20 | 80 | 1015.5 | |
| 20260831195021 | 19 | 0.0 | 0.0 | 0.00 | 0.20 | 0.20 | 80 | 1015.6 | |
| 20260831194520 | 19 | 0.0 | 0.0 | 0.00 | 0.20 | 0.20 | 79 | 1015.5 | |
| 20260831194017 | 19 | 0.0 | 0.0 | 0.00 | 0.20 | 0.20 | 79 | 1015.4 | |
| 20260831193535 | 19 | 0.0 | 0.0 | 0.00 | 0.20 | 0.20 | 79 | 1015.5 | |
| 20260831193034 | 19 | 0.0 | 0.0 | 0.00 | 0.20 | 0.20 | 79 | 1015.6 | |
| 20260831192532 | 19 | 0.0 | 0.0 | 0.00 | 0.20 | 0.20 | 79 | 1015.6 | |
| 20260831192030 | 19 | 0.0 | 0.0 | 0.00 | 0.20 | 0.20 | 79 | 1015.6 | |
| 20260831191528 | 19 | 0.0 | 0.0 | 0.00 | 0.20 | 0.20 | 79 | 1015.7 | |
| 20260831191026 | 19 | 0.0 | 0.0 | 0.00 | 0.20 | 0.20 | 79 | 1015.7 | |
| 20260831190524 | 19 | 0.0 | 0.0 | 0.00 | 0.20 | 0.20 | 79 | 1015.6 | |
| 20260831190022 | 19 | 0.0 | 0.0 | 0.00 | 0.20 | 0.20 | 79 | 1015.7 | |
| 20260831185520 | 19 | 0.0 | 0.0 | 0.00 | 0.20 | 0.20 | 78 | 1015.6 | |
| 20260831185018 | 20 | 0.0 | 0.0 | 0.00 | 0.20 | 0.20 | 78 | 1015.7 | |
| 20260831184517 | 20 | 0.0 | 0.0 | 0.00 | 0.20 | 0.20 | 78 | 1015.7 | |
| 20260831184035 | 20 | 0.0 | 0.0 | 0.00 | 0.20 | 0.20 | 78 | 1015.7 | |
| 20260831183533 | 20 | 0.0 | 0.0 | 0.00 | 0.20 | 0.20 | 78 | 1015.6 | |
| 20260831183031 | 20 | 0.0 | 0.0 | 0.00 | 0.20 | 0.20 | 78 | 1015.7 | |
| 20260831182530 | 20 | 0.0 | 0.0 | 0.00 | 0.20 | 0.20 | 78 | 1015.7 | |
| 20260831182028 | 20 | 184 | 0.0 | 3.2 | 0.00 | 0.20 | 0.20 | 78 | 1015.7 |
| 20260831181525 | 20 | 0.0 | 0.0 | 0.00 | 0.20 | 0.20 | 78 | 1015.6 | |
| 20260831181024 | 20 | 0.0 | 0.0 | 0.00 | 0.20 | 0.20 | 78 | 1015.5 | |
| 20260831180522 | 20 | 193 | 0.0 | 4.8 | 0.00 | 0.20 | 0.20 | 78 | 1015.4 |
| 20260831180020 | 20 | 205 | 0.0 | 6.4 | 0.00 | 0.20 | 0.20 | 77 | 1015.2 |
| 20260831175518 | 20 | 0.0 | 0.0 | 0.00 | 0.20 | 0.20 | 77 | 1015.0 | |
| 20260831175017 | 20 | 0.0 | 0.0 | 0.00 | 0.20 | 0.20 | 77 | 1015.0 | |
| 20260831174535 | 20 | 192 | 0.0 | 3.2 | 0.00 | 0.20 | 0.20 | 77 | 1014.8 |
| 20260831174033 | 20 | 181 | 0.0 | 3.2 | 0.00 | 0.20 | 0.20 | 77 | 1014.8 |
| 20260831173531 | 20 | 195 | 0.0 | 3.2 | 0.00 | 0.20 | 0.20 | 77 | 1015.0 |
| 20260831173029 | 20 | 0.0 | 0.0 | 0.00 | 0.20 | 0.20 | 77 | 1014.9 | |
| 20260831172527 | 20 | 0.0 | 0.0 | 0.00 | 0.20 | 0.20 | 77 | 1014.9 | |
| 20260831172059 | 20 | 194 | 0.0 | 4.8 | 0.00 | 0.20 | 0.20 | 77 | 1014.9 |
| 20260831172025 | 20 | 194 | 0.0 | 4.8 | 0.00 | 0.20 | 0.20 | 77 | 1014.9 |
| 20260831171523 | 20 | 176 | 1.6 | 6.4 | 0.00 | 0.20 | 0.20 | 77 | 1014.7 |
| 20260831171021 | 20 | 193 | 0.0 | 3.2 | 0.00 | 0.20 | 0.20 | 77 | 1014.8 |
| 20260831170520 | 20 | 0.0 | 0.0 | 0.00 | 0.20 | 0.20 | 77 | 1014.7 | |
| 20260831170018 | 20 | 226 | 0.0 | 3.2 | 0.00 | 0.20 | 0.20 | 77 | 1014.8 |
| 20260831165516 | 20 | 0.0 | 0.0 | 0.00 | 0.20 | 0.20 | 77 | 1014.7 | |
| 20260831165034 | 20 | 0.0 | 0.0 | 0.00 | 0.20 | 0.20 | 77 | 1014.8 | |
| 20260831164532 | 20 | 0.0 | 0.0 | 0.00 | 0.20 | 0.20 | 76 | 1014.6 | |
| 20260831164030 | 20 | 0.0 | 0.0 | 0.00 | 0.20 | 0.20 | 76 | 1014.4 | |
| 20260831163529 | 20 | 0.0 | 0.0 | 0.00 | 0.20 | 0.20 | 76 | 1014.6 | |
| 20260831163027 | 20 | 204 | 0.0 | 1.6 | 0.00 | 0.20 | 0.20 | 76 | 1014.5 |
| 20260831162525 | 20 | 0.0 | 0.0 | 0.00 | 0.20 | 0.20 | 76 | 1014.5 | |
| 20260831162023 | 20 | 0.0 | 0.0 | 0.00 | 0.20 | 0.20 | 75 | 1014.5 | |
| 20260831161522 | 21 | 0.0 | 0.0 | 0.00 | 0.20 | 0.20 | 75 | 1014.5 | |
| 20260831161054 | 21 | 0.0 | 0.0 | 0.00 | 0.20 | 0.20 | 75 | 1014.4 | |
| 20260831161019 | 21 | 0.0 | 0.0 | 0.00 | 0.20 | 0.20 | 75 | 1014.4 | |
| 20260831160517 | 21 | 0.0 | 0.0 | 0.00 | 0.20 | 0.20 | 75 | 1014.5 | |
| 20260831160035 | 21 | 0.0 | 0.0 | 0.00 | 0.20 | 0.20 | 75 | 1014.5 | |
| 20260831155534 | 21 | 0.0 | 0.0 | 0.00 | 0.20 | 0.20 | 75 | 1014.6 | |
| 20260831155032 | 21 | 0.0 | 0.0 | 0.00 | 0.20 | 0.20 | 75 | 1014.7 | |
| 20260831154530 | 21 | 0.0 | 0.0 | 0.00 | 0.20 | 0.20 | 75 | 1014.6 | |
| 20260831154028 | 21 | 301 | 0.0 | 3.2 | 0.00 | 0.20 | 0.20 | 75 | 1014.6 |
| 20260831153526 | 21 | 0.0 | 0.0 | 0.00 | 0.20 | 0.20 | 74 | 1014.6 | |
| 20260831153024 | 21 | 349 | 0.0 | 1.6 | 0.00 | 0.20 | 0.20 | 74 | 1014.6 |
| 20260831152522 | 21 | 323 | 0.0 | 3.2 | 0.00 | 0.20 | 0.20 | 74 | 1014.7 |
| 20260831152021 | 21 | 0.0 | 0.0 | 0.00 | 0.20 | 0.20 | 74 | 1014.6 | |
| 20260831151519 | 21 | 0.0 | 0.0 | 0.18 | 0.20 | 0.20 | 74 | 1014.7 | |
| 20260831151100 | 21 | 350 | 1.6 | 3.2 | 0.18 | 0.20 | 0.20 | 74 | 1014.8 |
| 20260831151017 | 21 | 350 | 1.6 | 3.2 | 0.18 | 0.20 | 0.20 | 74 | 1014.8 |
| 20260831150535 | 21 | 347 | 0.0 | 3.2 | 0.18 | 0.20 | 0.20 | 74 | 1014.8 |
| 20260831150107 | 21 | 353 | 0.0 | 1.6 | 0.18 | 0.20 | 0.20 | 75 | 1014.7 |
| 20260831150033 | 21 | 353 | 0.0 | 1.6 | 0.18 | 0.20 | 0.20 | 75 | 1014.7 |
| 20260831145531 | 21 | 343 | 0.0 | 4.8 | 0.18 | 0.20 | 0.20 | 75 | 1014.7 |
| 20260831145029 | 21 | 356 | 1.6 | 6.4 | 0.20 | 0.20 | 0.20 | 76 | 1014.8 |
| 20260831144527 | 21 | 311 | 1.6 | 4.8 | 0.20 | 0.20 | 0.20 | 76 | 1014.9 |
| 20260831144025 | 21 | 301 | 1.6 | 4.8 | 0.20 | 0.20 | 0.20 | 77 | 1014.8 |
| 20260831143523 | 21 | 304 | 4.8 | 12.9 | 0.20 | 0.20 | 0.20 | 77 | 1014.9 |
| 20260831143021 | 21 | 358 | 6.4 | 16.1 | 0.20 | 0.20 | 0.20 | 76 | 1014.9 |
| 20260831142519 | 21 | 310 | 9.7 | 25.7 | 0.20 | 0.20 | 0.20 | 75 | 1015.1 |
| 20260831142051 | 22 | 325 | 11.3 | 35.4 | 0.20 | 0.20 | 0.20 | 72 | 1015.7 |
| 20260831142017 | 22 | 325 | 11.3 | 35.4 | 0.20 | 0.20 | 0.20 | 72 | 1015.7 |
| 20260831141516 | 22 | 284 | 16.1 | 33.8 | 0.03 | 0.03 | 0.03 | 69 | 1015.7 |
| 20260831141034 | 22 | 293 | 1.6 | 9.7 | 0.03 | 0.03 | 0.03 | 66 | 1014.1 |
| 20260831140533 | 22 | 58 | 0.0 | 3.2 | 0.03 | 0.03 | 0.03 | 66 | 1013.9 |
| 20260831140030 | 22 | 51 | 1.6 | 4.8 | 0.03 | 0.03 | 0.03 | 66 | 1014.1 |
| 20260831135528 | 22 | 341 | 4.8 | 12.9 | 0.03 | 0.03 | 0.03 | 65 | 1014.5 |
| 20260831135026 | 22 | 351 | 3.2 | 11.3 | 0.00 | 0.00 | 0.00 | 65 | 1014.5 |
| 20260831134524 | 23 | 12 | 1.6 | 11.3 | 0.00 | 0.00 | 0.00 | 65 | 1014.4 |
| 20260831134059 | 23 | 356 | 4.8 | 14.5 | 0.00 | 0.00 | 0.00 | 64 | 1014.5 |
| 20260831134023 | 23 | 356 | 4.8 | 14.5 | 0.00 | 0.00 | 0.00 | 64 | 1014.5 |
| 20260831133520 | 23 | 348 | 4.8 | 14.5 | 0.00 | 0.00 | 0.00 | 62 | 1014.7 |
| 20260831133019 | 23 | 302 | 1.6 | 6.4 | 0.00 | 0.00 | 0.00 | 60 | 1014.7 |
| 20260831132517 | 24 | 299 | 1.6 | 4.8 | 0.00 | 0.00 | 0.00 | 59 | 1014.8 |
| 20260831132035 | 24 | 315 | 4.8 | 11.3 | 0.00 | 0.00 | 0.00 | 57 | 1014.7 |
| 20260831131533 | 25 | 344 | 9.7 | 25.7 | 0.00 | 0.00 | 0.00 | 55 | 1014.7 |
| 20260831131031 | 25 | 321 | 14.5 | 33.8 | 0.00 | 0.00 | 0.00 | 53 | 1014.9 |
| 20260831130529 | 25 | 327 | 11.3 | 20.9 | 0.00 | 0.00 | 0.00 | 52 | 1014.8 |
| 20260831130028 | 26 | 337 | 9.7 | 20.9 | 0.00 | 0.00 | 0.00 | 50 | 1014.5 |
| 20260831125525 | 26 | 303 | 11.3 | 25.7 | 0.00 | 0.00 | 0.00 | 49 | 1014.4 |
| 20260831125023 | 26 | 296 | 6.4 | 20.9 | 0.00 | 0.00 | 0.00 | 49 | 1014.4 |
| 20260831124521 | 26 | 289 | 4.8 | 12.9 | 0.00 | 0.00 | 0.00 | 49 | 1014.3 |
| 20260831124020 | 26 | 289 | 4.8 | 14.5 | 0.00 | 0.00 | 0.00 | 50 | 1014.4 |